Estació municipal de Aiguafreda (Osona, P.N. del Montseny)

Consulta les dades en temps real de l'estació municipal de Aiguafreda





Hora UTC 06:15
Temperatura 17.2 ºC
Sòl 15 cm 16.1 ºC
Humitat 86.9 %
Pressió 1023.1 hPa
Pluja 0.0 mm
Velocitat vent 0.0 km/h
Direcció vent NNE

Dades diàries 2026-09-03



Hora UTC (hivern +1h; estiu +2h)
Temperatura (ºC) Humitat (%) Pressió (hPa) Velocitat vent (km/h) Precipitació (mm)
Hora UTC Aire Sòl 15 cm Humitat Pressió Vel. Dir. Vel. Max Dir. Intent. màx 5 min.
00:05 18.8 17.4 80.0 1022.9 0.0 NNE 0.0 ENE 0.0
00:10 18.7 17.4 80.1 1022.9 0.0 NNE 0.0 WNW 0.0
00:15 18.7 17.3 80.3 1022.9 0.0 NNE 0.0 SSW 0.0
00:20 18.6 17.2 80.5 1023.0 0.0 NNE 0.0 N 0.0
00:25 18.6 17.2 80.7 1023.0 0.0 NNE 0.0 N 0.0
00:30 18.5 17.1 81.0 1023.0 0.0 NNE 0.0 N 0.0
00:35 18.5 17.1 81.2 1023.0 0.0 NNE 0.0 N 0.0
00:40 18.5 17.1 81.4 1023.0 0.0 NNE 0.0 N 0.0
00:45 18.4 17.0 81.3 1023.0 0.0 NNE 0.0 N 0.0
00:50 18.4 17.0 81.6 1022.9 0.0 NNE 0.0 N 0.0
00:55 18.3 16.9 81.8 1022.9 0.0 NNE 0.0 N 0.0
01:00 18.3 16.9 81.9 1022.9 0.0 NNE 0.0 N 0.0
01:05 18.3 16.9 82.1 1022.9 0.0 NNE 0.0 N 0.0
01:10 18.2 16.8 82.1 1022.9 0.0 NNE 0.0 N 0.0
01:15 18.2 16.8 82.4 1022.9 0.0 NNE 0.0 NNW 0.0
01:20 18.1 16.7 82.6 1022.9 0.0 NNE 0.0 NNW 0.0
01:25 18.1 16.7 82.8 1022.9 0.0 NNE 0.0 NNW 0.0
01:30 18.0 16.6 83.0 1022.9 0.0 NNE 0.0 NNW 0.0
01:35 18.0 16.6 83.1 1022.9 0.0 NNE 0.0 NNW 0.0
01:40 17.9 16.6 83.4 1022.9 0.0 NNE 0.0 NNW 0.0
01:45 17.9 16.5 83.5 1022.9 0.0 NNE 0.0 NNW 0.0
01:50 17.8 16.5 83.6 1022.8 0.0 NNE 0.0 NNW 0.0
01:55 17.8 16.5 83.7 1022.9 0.0 NNE 0.0 NNW 0.0
02:00 17.8 16.4 83.9 1022.9 0.0 NNE 0.0 NNW 0.0
02:05 17.8 16.4 84.0 1022.9 0.0 NNE 0.0 NNW 0.0
02:10 17.7 16.3 84.1 1022.9 0.0 NNE 0.0 NNW 0.0
02:15 17.7 16.3 84.3 1022.9 0.0 NNE 0.0 NNW 0.0
02:20 17.6 16.3 84.4 1022.9 0.0 NNE 0.0 NNW 0.0
02:25 17.6 16.2 84.5 1022.8 0.0 NNE 0.0 NNW 0.0
02:30 17.6 16.2 84.5 1022.8 0.0 NNE 0.0 NW 0.0
02:35 17.6 16.2 84.5 1022.8 0.0 NNE 0.0 NW 0.0
02:40 17.6 16.2 84.6 1022.8 0.0 NNE 0.0 NW 0.0
02:45 17.5 16.1 84.7 1022.8 0.0 NNE 0.0 NW 0.0
02:50 17.5 16.1 84.9 1022.8 0.0 NNE 0.0 SE 0.0
02:55 17.5 16.1 85.1 1022.7 0.0 NNE 0.0 SE 0.0
03:00 17.5 16.1 85.3 1022.7 0.0 NNE 0.0 SE 0.0
03:05 17.4 16.0 85.4 1022.7 0.0 NNE 0.0 ENE 0.0
03:10 17.4 16.0 85.5 1022.7 0.0 NNE 0.0 NNE 0.0
03:15 17.4 16.0 85.6 1022.7 0.0 NNE 0.0 NNE 0.0
03:20 17.3 15.9 85.8 1022.7 0.0 NNE 0.0 NNE 0.0
03:25 17.3 15.9 85.9 1022.7 0.0 NNE 0.0 NNE 0.0
03:30 17.3 15.9 86.0 1022.6 0.0 NNE 0.0 NNE 0.0
03:35 17.2 15.8 86.1 1022.6 0.0 NNE 0.0 NNE 0.0
03:40 17.2 15.8 86.2 1022.6 0.0 NNE 0.0 NNE 0.0
03:45 17.1 15.7 86.3 1022.5 0.0 NNE 0.0 NNE 0.0
03:50 17.1 15.7 86.4 1022.5 0.0 NNE 0.0 NNE 0.0
03:55 17.1 15.7 86.6 1022.4 0.0 NNE 0.0 NNE 0.0
04:00 17.0 15.6 86.7 1022.4 0.0 NNE 0.0 NNE 0.0
04:05 17.0 15.6 86.7 1022.4 0.0 NNE 0.0 NNE 0.0
04:10 17.0 15.6 86.9 1022.3 0.0 NNE 0.0 NNE 0.0
04:15 16.9 15.5 87.0 1022.3 0.0 NNE 0.0 NNE 0.0
04:20 16.9 15.5 87.2 1022.3 0.0 NNE 0.0 NE 0.0
04:25 16.9 15.4 87.4 1022.3 0.0 NNE 0.0 NE 0.0
04:30 16.9 15.4 87.6 1022.3 0.0 NNE 0.0 NE 0.0
04:35 16.8 15.4 87.6 1022.3 0.0 NNE 0.0 NE 0.0
04:40 16.8 15.4 87.7 1022.3 0.0 NNE 0.0 NE 0.0
04:45 16.8 15.4 87.7 1022.4 0.0 NNE 0.0 NE 0.0
04:50 16.8 15.3 87.7 1022.4 0.0 NNE 0.0 NE 0.0
04:55 16.7 15.3 87.9 1022.4 0.0 NNE 0.0 NE 0.0
05:00 16.7 15.3 88.0 1022.5 0.0 NNE 0.0 NE 0.0
05:05 16.7 15.2 88.1 1022.5 0.0 NNE 0.0 NE 0.0
05:10 16.7 15.3 88.1 1022.6 0.0 NNE 0.0 NE 0.0
05:15 16.7 15.3 88.0 1022.6 0.0 NNE 0.0 NE 0.0
05:20 16.7 15.2 88.0 1022.6 0.0 NNE 0.0 NE 0.0
05:25 16.7 15.2 88.0 1022.7 0.0 NNE 0.0 NE 0.0
05:30 16.7 15.3 87.9 1022.8 0.0 NNE 0.0 N 0.0
05:35 16.7 15.3 87.9 1022.8 0.0 NNE 0.0 N 0.0
05:40 16.7 15.4 87.8 1022.8 0.0 NNE 0.0 N 0.0
05:45 16.8 15.4 87.9 1022.9 0.0 NNE 0.0 N 0.0
05:50 16.8 15.5 87.7 1022.9 0.0 NNE 0.0 N 0.0
05:55 16.9 15.6 87.5 1022.9 0.0 NNE 0.0 N 0.0
06:00 16.9 15.7 87.4 1023.0 0.0 NNE 0.0 N 0.0
06:05 17.0 15.8 87.2 1023.0 0.0 NNE 0.0 N 0.0
06:10 17.1 15.9 87.0 1023.1 0.0 NNE 0.0 N 0.0
06:15 17.2 16.1 86.9 1023.1 0.0 NNE 0.0 SW 0.0
Màxima 18.8 17.4 88.1 1023.1 0.0 NNE 0.0 SW 0.0
Mínima 16.7 15.2 80.0 1022.3
Total 0.0